Time,TemperatureF,DewpointF,PressureIn,WindDirection,WindDirectionDegrees,WindSpeedMPH,WindSpeedGustMPH,Humidity,HourlyPrecipIn,Conditions,Clouds,dailyrainin,SoftwareType,DateUTC
2017-07-24 00:02:00,62.4,54.0,29.95,WNW,286,0.0,0.0,74,0.00,,---,0.00,VWS V15.00,2017-07-24 04:02:00,
2017-07-24 00:07:00,62.3,53.9,29.96,WNW,286,0.0,0.0,74,0.00,,---,0.00,VWS V15.00,2017-07-24 04:07:00,
2017-07-24 00:12:00,62.3,53.9,29.96,WNW,286,0.0,0.0,74,0.00,,---,0.00,VWS V15.00,2017-07-24 04:12:00,
2017-07-24 00:17:00,62.3,54.3,29.96,WNW,286,0.0,0.0,75,0.00,,---,0.00,VWS V15.00,2017-07-24 04:17:00,
2017-07-24 00:22:00,62.1,54.1,29.97,WNW,286,0.0,0.0,75,0.00,,---,0.00,VWS V15.00,2017-07-24 04:22:00,
2017-07-24 00:27:00,62.1,54.1,29.97,WNW,286,0.0,0.0,75,0.00,,---,0.00,VWS V15.00,2017-07-24 04:27:00,
2017-07-24 00:32:00,62.1,54.5,29.97,WNW,286,0.0,0.0,76,0.00,,---,0.00,VWS V15.00,2017-07-24 04:32:00,
2017-07-24 00:37:00,62.0,54.4,29.96,WNW,286,0.0,0.0,76,0.00,,---,0.00,VWS V15.00,2017-07-24 04:37:00,
2017-07-24 00:42:00,62.0,54.7,29.96,WNW,286,0.0,0.0,77,0.00,,---,0.00,VWS V15.00,2017-07-24 04:42:00,
2017-07-24 00:47:00,62.0,54.7,29.96,WNW,286,0.0,0.0,77,0.00,,---,0.00,VWS V15.00,2017-07-24 04:47:00,
2017-07-24 00:52:00,62.0,54.7,29.97,WNW,286,0.0,0.0,77,0.00,,---,0.00,VWS V15.00,2017-07-24 04:52:00,
2017-07-24 00:53:00,62.0,54.7,29.97,WNW,286,0.0,0.0,77,0.00,,---,0.00,VWS V15.00,2017-07-24 04:53:00,
2017-07-24 00:58:00,61.8,54.9,29.97,WNW,286,0.0,0.0,78,0.00,,---,0.00,VWS V15.00,2017-07-24 04:58:00,
2017-07-24 01:03:00,61.8,54.5,29.97,WNW,286,0.0,0.0,77,0.00,,---,0.00,VWS V15.00,2017-07-24 05:03:00,
2017-07-24 01:08:00,61.8,54.5,29.97,WNW,286,0.0,0.0,77,0.00,,---,0.00,VWS V15.00,2017-07-24 05:08:00,
2017-07-24 01:13:00,61.6,54.7,29.97,WNW,286,0.0,0.0,78,0.00,,---,0.00,VWS V15.00,2017-07-24 05:13:00,
2017-07-24 01:18:00,61.6,54.7,29.97,WNW,286,0.0,0.0,78,0.00,,---,0.00,VWS V15.00,2017-07-24 05:18:00,
2017-07-24 01:23:00,61.6,54.7,29.97,WNW,286,0.0,0.0,78,0.00,,---,0.00,VWS V15.00,2017-07-24 05:23:00,
2017-07-24 01:28:00,61.8,55.2,29.97,WNW,286,0.0,0.0,79,0.00,,---,0.00,VWS V15.00,2017-07-24 05:28:00,
2017-07-24 01:29:00,61.8,55.2,29.97,WNW,286,0.0,0.0,79,0.00,,---,0.00,VWS V15.00,2017-07-24 05:29:00,
2017-07-24 01:34:00,61.8,55.2,29.96,WNW,286,0.0,0.0,79,0.00,,---,0.00,VWS V15.00,2017-07-24 05:34:00,
2017-07-24 01:39:00,61.8,55.2,29.96,WNW,286,0.0,0.0,79,0.00,,---,0.00,VWS V15.00,2017-07-24 05:39:00,
2017-07-24 01:44:00,61.8,55.2,29.96,WNW,286,0.0,0.0,79,0.00,,---,0.00,VWS V15.00,2017-07-24 05:44:00,
2017-07-24 01:49:00,61.8,55.2,29.95,WNW,286,0.0,0.0,79,0.00,,---,0.00,VWS V15.00,2017-07-24 05:49:00,
2017-07-24 01:54:00,61.6,55.0,29.95,WNW,286,0.0,0.0,79,0.00,,---,0.00,VWS V15.00,2017-07-24 05:54:00,
2017-07-24 01:59:00,61.6,55.0,29.95,WNW,286,0.0,0.0,79,0.00,,---,0.00,VWS V15.00,2017-07-24 05:59:00,
2017-07-24 02:04:00,61.6,55.0,29.96,WNW,286,0.0,0.0,79,0.00,,---,0.00,VWS V15.00,2017-07-24 06:04:00,
2017-07-24 02:09:00,61.5,54.9,29.96,WNW,286,0.0,0.0,79,0.00,,---,0.00,VWS V15.00,2017-07-24 06:09:00,
2017-07-24 02:14:00,61.6,55.0,29.96,WNW,286,0.0,0.0,79,0.00,,---,0.00,VWS V15.00,2017-07-24 06:14:00,
2017-07-24 02:19:00,61.5,55.3,29.95,WNW,286,0.0,0.0,80,0.00,,---,0.00,VWS V15.00,2017-07-24 06:19:00,
2017-07-24 02:24:00,61.5,55.3,29.95,WNW,286,0.0,0.0,80,0.00,,---,0.00,VWS V15.00,2017-07-24 06:24:00,
2017-07-24 02:29:00,61.5,55.3,29.95,WNW,286,0.0,0.0,80,0.00,,---,0.00,VWS V15.00,2017-07-24 06:29:00,
2017-07-24 02:34:00,61.5,55.3,29.95,WNW,286,0.0,0.0,80,0.00,,---,0.00,VWS V15.00,2017-07-24 06:34:00,
2017-07-24 02:39:00,61.5,55.3,29.95,WNW,286,0.0,0.0,80,0.00,,---,0.00,VWS V15.00,2017-07-24 06:39:00,
2017-07-24 02:40:00,61.5,55.3,29.95,WNW,286,0.0,0.0,80,0.00,,---,0.00,VWS V15.00,2017-07-24 06:40:00,
2017-07-24 02:45:00,61.3,55.1,29.95,WNW,286,0.0,0.0,80,0.00,,---,0.00,VWS V15.00,2017-07-24 06:45:00,
2017-07-24 02:50:00,61.3,55.1,29.96,WNW,286,0.0,0.0,80,0.00,,---,0.00,VWS V15.00,2017-07-24 06:50:00,
2017-07-24 02:55:00,61.3,55.4,29.96,WNW,286,0.0,0.0,81,0.00,,---,0.00,VWS V15.00,2017-07-24 06:55:00,
2017-07-24 03:00:00,61.3,55.4,29.96,WNW,286,0.0,0.0,81,0.00,,---,0.00,VWS V15.00,2017-07-24 07:00:00,
2017-07-24 03:05:00,61.5,55.6,29.95,WNW,286,0.0,0.0,81,0.00,,---,0.00,VWS V15.00,2017-07-24 07:05:00,
2017-07-24 03:10:00,61.5,56.0,29.95,WNW,286,0.0,0.0,82,0.00,,---,0.00,VWS V15.00,2017-07-24 07:10:00,
2017-07-24 03:15:00,61.3,55.8,29.95,WNW,286,0.0,0.0,82,0.00,,---,0.00,VWS V15.00,2017-07-24 07:15:00,
2017-07-24 03:20:00,61.3,55.8,29.95,WNW,286,0.0,0.0,82,0.00,,---,0.00,VWS V15.00,2017-07-24 07:20:00,
2017-07-24 03:25:00,61.3,55.8,29.95,WNW,286,0.0,0.0,82,0.00,,---,0.00,VWS V15.00,2017-07-24 07:25:00,
2017-07-24 03:30:00,61.3,56.1,29.95,WNW,286,0.0,0.0,83,0.00,,---,0.00,VWS V15.00,2017-07-24 07:30:00,
2017-07-24 03:35:00,61.2,56.0,29.95,WNW,286,0.0,0.0,83,0.00,,---,0.00,VWS V15.00,2017-07-24 07:35:00,
2017-07-24 03:40:00,61.2,56.0,29.95,WNW,286,0.0,0.0,83,0.00,,---,0.00,VWS V15.00,2017-07-24 07:40:00,
2017-07-24 03:45:00,61.2,56.0,29.95,WNW,286,0.0,0.0,83,0.00,,---,0.00,VWS V15.00,2017-07-24 07:45:00,
2017-07-24 03:50:00,61.2,56.0,29.96,WNW,286,0.0,0.0,83,0.00,,---,0.00,VWS V15.00,2017-07-24 07:50:00,
2017-07-24 03:54:00,61.3,56.1,29.96,WNW,286,0.0,0.0,83,0.00,,---,0.00,VWS V15.00,2017-07-24 07:54:00,
2017-07-24 03:59:00,61.3,56.1,29.96,WNW,286,0.0,0.0,83,0.00,,---,0.00,VWS V15.00,2017-07-24 07:59:00,
2017-07-24 04:04:00,61.3,56.1,29.95,WNW,286,0.0,0.0,83,0.00,,---,0.00,VWS V15.00,2017-07-24 08:04:00,
2017-07-24 04:09:00,61.3,56.1,29.95,WNW,286,0.0,0.0,83,0.00,,---,0.00,VWS V15.00,2017-07-24 08:09:00,
2017-07-24 04:14:00,61.3,56.4,29.95,WNW,286,0.0,0.0,84,0.00,,---,0.00,VWS V15.00,2017-07-24 08:14:00,
2017-07-24 04:19:00,61.3,56.4,29.94,WNW,286,0.0,0.0,84,0.00,,---,0.00,VWS V15.00,2017-07-24 08:19:00,
2017-07-24 04:24:00,61.3,56.4,29.94,WNW,286,0.0,0.0,84,0.00,,---,0.00,VWS V15.00,2017-07-24 08:24:00,
2017-07-24 04:29:00,61.3,56.4,29.94,WNW,286,0.0,0.0,84,0.00,,---,0.00,VWS V15.00,2017-07-24 08:29:00,
2017-07-24 04:34:00,61.3,56.4,29.95,WNW,286,0.0,0.0,84,0.00,,---,0.00,VWS V15.00,2017-07-24 08:34:00,
2017-07-24 04:39:00,61.5,56.6,29.95,WNW,286,0.0,0.0,84,0.00,,---,0.00,VWS V15.00,2017-07-24 08:39:00,
2017-07-24 04:44:00,61.5,56.6,29.95,WNW,286,0.0,0.0,84,0.00,,---,0.00,VWS V15.00,2017-07-24 08:44:00,
2017-07-24 04:50:00,61.5,56.6,29.94,WNW,286,0.0,0.0,84,0.00,,---,0.00,VWS V15.00,2017-07-24 08:50:00,
2017-07-24 04:55:00,61.5,56.6,29.94,WNW,286,0.0,0.0,84,0.00,,---,0.00,VWS V15.00,2017-07-24 08:55:00,
2017-07-24 05:00:00,61.5,56.6,29.94,WNW,286,0.0,0.0,84,0.00,,---,0.00,VWS V15.00,2017-07-24 09:00:00,
2017-07-24 05:04:00,61.5,56.6,29.94,WNW,286,0.0,0.0,84,0.00,,---,0.00,VWS V15.00,2017-07-24 09:04:00,
2017-07-24 05:09:00,61.5,56.6,29.94,WNW,286,0.0,0.0,84,0.00,,---,0.00,VWS V15.00,2017-07-24 09:09:00,
2017-07-24 05:14:00,61.5,56.6,29.94,WNW,286,0.0,0.0,84,0.00,,---,0.00,VWS V15.00,2017-07-24 09:14:00,
2017-07-24 05:19:00,61.3,56.4,29.95,WNW,286,0.0,0.0,84,0.00,,---,0.00,VWS V15.00,2017-07-24 09:19:00,
2017-07-24 05:24:00,61.3,56.4,29.95,WNW,286,0.0,0.0,84,0.00,,---,0.00,VWS V15.00,2017-07-24 09:24:00,
2017-07-24 05:29:00,61.3,56.4,29.95,WNW,286,0.0,0.0,84,0.00,,---,0.00,VWS V15.00,2017-07-24 09:29:00,
2017-07-24 05:35:00,61.3,56.8,29.94,WNW,286,0.0,0.0,85,0.00,,---,0.00,VWS V15.00,2017-07-24 09:35:00,
2017-07-24 05:40:00,61.3,56.8,29.94,WNW,286,0.0,0.0,85,0.00,,---,0.00,VWS V15.00,2017-07-24 09:40:00,
2017-07-24 05:45:00,61.5,57.0,29.94,WNW,286,0.0,0.0,85,0.00,,---,0.00,VWS V15.00,2017-07-24 09:45:00,
2017-07-24 05:50:00,61.3,56.8,29.95,WNW,286,0.0,0.0,85,0.00,,---,0.00,VWS V15.00,2017-07-24 09:50:00,
2017-07-24 05:55:00,61.5,57.0,29.95,WNW,286,0.0,0.0,85,0.00,,---,0.00,VWS V15.00,2017-07-24 09:55:00,
2017-07-24 06:00:00,61.5,57.0,29.95,WNW,286,0.0,0.0,85,0.00,,---,0.00,VWS V15.00,2017-07-24 10:00:00,
2017-07-24 06:05:00,61.5,56.6,29.95,WNW,286,0.0,0.0,84,0.00,,---,0.00,VWS V15.00,2017-07-24 10:05:00,
2017-07-24 06:10:00,61.6,56.7,29.95,WNW,286,0.0,0.0,84,0.00,,---,0.00,VWS V15.00,2017-07-24 10:10:00,
2017-07-24 06:15:00,61.6,56.7,29.95,WNW,286,0.0,0.0,84,0.00,,---,0.00,VWS V15.00,2017-07-24 10:15:00,
2017-07-24 06:20:00,61.6,56.7,29.95,WNW,286,0.0,0.0,84,0.00,,---,0.00,VWS V15.00,2017-07-24 10:20:00,
2017-07-24 06:25:00,61.6,57.0,29.95,WNW,286,0.0,0.0,85,0.00,,---,0.00,VWS V15.00,2017-07-24 10:25:00,
2017-07-24 06:30:00,61.6,57.0,29.95,WNW,286,0.0,0.0,85,0.00,,---,0.00,VWS V15.00,2017-07-24 10:30:00,
2017-07-24 06:35:00,61.6,57.0,29.95,WNW,286,0.0,0.0,85,0.00,,---,0.00,VWS V15.00,2017-07-24 10:35:00,
2017-07-24 06:40:00,61.6,57.0,29.95,WNW,286,0.0,0.0,85,0.00,,---,0.00,VWS V15.00,2017-07-24 10:40:00,
2017-07-24 06:45:00,61.6,57.4,29.95,WNW,286,0.0,0.0,86,0.00,,---,0.00,VWS V15.00,2017-07-24 10:45:00,
2017-07-24 06:50:00,61.6,57.4,29.96,WNW,286,0.0,0.0,86,0.00,,---,0.00,VWS V15.00,2017-07-24 10:50:00,
2017-07-24 06:55:00,61.6,57.4,29.96,WNW,286,0.0,0.0,86,0.00,,---,0.00,VWS V15.00,2017-07-24 10:55:00,
2017-07-24 07:00:00,61.6,57.7,29.96,WNW,286,0.0,0.0,87,0.00,,---,0.00,VWS V15.00,2017-07-24 11:00:00,
2017-07-24 07:05:00,61.6,58.0,29.97,WNW,286,0.0,0.0,88,0.00,,---,0.00,VWS V15.00,2017-07-24 11:05:00,
2017-07-24 07:10:00,61.6,58.0,29.97,WNW,286,0.0,0.0,88,0.00,,---,0.00,VWS V15.00,2017-07-24 11:10:00,
2017-07-24 07:15:00,61.5,58.2,29.97,WNW,286,0.0,0.0,89,0.01,,---,0.01,VWS V15.00,2017-07-24 11:15:00,
2017-07-24 07:20:00,61.5,58.2,29.97,WNW,286,0.0,0.0,89,0.01,,---,0.01,VWS V15.00,2017-07-24 11:20:00,
2017-07-24 07:25:00,61.5,58.2,29.97,WNW,286,0.0,0.0,89,0.01,,---,0.01,VWS V15.00,2017-07-24 11:25:00,
2017-07-24 07:30:00,61.5,58.5,29.97,WNW,286,0.0,0.0,90,0.01,,---,0.01,VWS V15.00,2017-07-24 11:30:00,
2017-07-24 07:35:00,61.5,58.5,29.97,WNW,286,0.0,0.0,90,0.01,,---,0.01,VWS V15.00,2017-07-24 11:35:00,
2017-07-24 07:40:00,61.5,58.5,29.97,WNW,286,0.0,0.0,90,0.01,,---,0.01,VWS V15.00,2017-07-24 11:40:00,
2017-07-24 07:45:00,61.3,58.7,29.97,WNW,288,0.0,2.0,91,0.01,,---,0.01,VWS V15.00,2017-07-24 11:45:00,
2017-07-24 07:50:00,61.2,58.2,29.97,WNW,288,0.0,0.0,90,0.01,,---,0.01,VWS V15.00,2017-07-24 11:50:00,
2017-07-24 07:55:00,60.9,57.6,29.97,NNW,329,0.0,2.0,89,0.01,,---,0.01,VWS V15.00,2017-07-24 11:55:00,
2017-07-24 08:00:00,60.7,57.4,29.97,NNW,330,0.0,2.0,89,0.01,,---,0.01,VWS V15.00,2017-07-24 12:00:00,
2017-07-24 08:05:00,60.5,56.9,29.97,NNW,330,0.0,0.0,88,0.01,,---,0.01,VWS V15.00,2017-07-24 12:05:00,
2017-07-24 08:10:00,60.5,56.9,29.97,NNW,330,0.0,1.0,88,0.01,,---,0.01,VWS V15.00,2017-07-24 12:10:00,
2017-07-24 08:15:00,60.4,56.5,29.97,NNW,330,0.0,1.0,87,0.01,,---,0.01,VWS V15.00,2017-07-24 12:15:00,
2017-07-24 08:20:00,60.2,56.0,29.97,NNW,330,0.0,0.0,86,0.00,,---,0.01,VWS V15.00,2017-07-24 12:20:00,
2017-07-24 08:25:00,60.2,56.0,29.97,NNW,330,0.0,0.0,86,0.00,,---,0.01,VWS V15.00,2017-07-24 12:25:00,
2017-07-24 08:30:00,60.1,55.9,29.97,NNW,330,0.0,0.0,86,0.00,,---,0.01,VWS V15.00,2017-07-24 12:30:00,
2017-07-24 08:35:00,60.1,55.9,29.98,NNW,330,0.0,0.0,86,0.00,,---,0.01,VWS V15.00,2017-07-24 12:35:00,
2017-07-24 08:40:00,60.1,55.9,29.98,NNW,330,0.0,0.0,86,0.00,,---,0.01,VWS V15.00,2017-07-24 12:40:00,
2017-07-24 08:45:00,59.9,56.0,29.98,NNW,330,0.0,0.0,87,0.00,,---,0.01,VWS V15.00,2017-07-24 12:45:00,
2017-07-24 08:50:00,59.9,56.0,29.98,NNW,330,0.0,0.0,87,0.00,,---,0.01,VWS V15.00,2017-07-24 12:50:00,
2017-07-24 08:55:00,59.9,56.0,29.98,NNW,330,0.0,0.0,87,0.00,,---,0.01,VWS V15.00,2017-07-24 12:55:00,
2017-07-24 09:00:00,59.9,56.3,29.98,NNW,330,0.0,0.0,88,0.00,,---,0.01,VWS V15.00,2017-07-24 13:00:00,
2017-07-24 09:05:00,59.9,56.7,29.97,NNW,330,0.0,0.0,89,0.00,,---,0.01,VWS V15.00,2017-07-24 13:05:00,
2017-07-24 09:09:00,59.9,56.7,29.97,NNW,330,0.0,0.0,89,0.00,,---,0.01,VWS V15.00,2017-07-24 13:09:00,
2017-07-24 09:14:00,60.1,56.8,29.97,NNW,330,0.0,0.0,89,0.00,,---,0.01,VWS V15.00,2017-07-24 13:14:00,
2017-07-24 09:19:00,59.9,57.0,29.97,NNW,330,0.0,0.0,90,0.00,,---,0.01,VWS V15.00,2017-07-24 13:19:00,
2017-07-24 09:24:00,59.8,56.9,29.97,NNW,330,0.0,1.0,90,0.00,,---,0.01,VWS V15.00,2017-07-24 13:24:00,
2017-07-24 09:29:00,59.8,56.9,29.97,NNW,330,0.0,1.0,90,0.00,,---,0.01,VWS V15.00,2017-07-24 13:29:00,
2017-07-24 09:34:00,59.6,56.7,29.97,ENE,68,0.0,2.0,90,0.00,,---,0.01,VWS V15.00,2017-07-24 13:34:00,
2017-07-24 09:39:00,59.5,56.6,29.97,ENE,69,0.0,2.0,90,0.00,,---,0.01,VWS V15.00,2017-07-24 13:39:00,
2017-07-24 09:44:00,59.5,56.6,29.97,ENE,73,0.0,2.0,90,0.00,,---,0.01,VWS V15.00,2017-07-24 13:44:00,
2017-07-24 09:49:00,59.3,56.4,29.96,ENE,77,0.0,1.0,90,0.00,,---,0.01,VWS V15.00,2017-07-24 13:49:00,
2017-07-24 09:54:00,59.0,55.8,29.96,North,7,0.0,3.0,89,0.00,,---,0.01,VWS V15.00,2017-07-24 13:54:00,
2017-07-24 09:59:00,59.0,56.1,29.96,ENE,78,0.0,3.0,90,0.00,,---,0.01,VWS V15.00,2017-07-24 13:59:00,
2017-07-24 10:04:00,59.2,56.3,29.96,ENE,78,0.0,1.0,90,0.00,,---,0.01,VWS V15.00,2017-07-24 14:04:00,
2017-07-24 10:09:00,59.0,56.1,29.96,East,86,0.0,2.0,90,0.00,,---,0.01,VWS V15.00,2017-07-24 14:09:00,
2017-07-24 10:14:00,58.9,56.0,29.96,East,86,0.0,2.0,90,0.00,,---,0.01,VWS V15.00,2017-07-24 14:14:00,
2017-07-24 10:19:00,58.7,55.5,29.97,East,89,2.0,2.0,89,0.00,,---,0.01,VWS V15.00,2017-07-24 14:19:00,
2017-07-24 10:24:00,58.4,55.2,29.97,ESE,103,0.0,2.0,89,0.00,,---,0.01,VWS V15.00,2017-07-24 14:24:00,
2017-07-24 10:29:00,58.3,55.1,29.97,ESE,103,0.0,2.0,89,0.00,,---,0.01,VWS V15.00,2017-07-24 14:29:00,
2017-07-24 10:34:00,58.3,55.4,29.98,ESE,103,0.0,0.0,90,0.00,,---,0.01,VWS V15.00,2017-07-24 14:34:00,
2017-07-24 10:39:00,58.0,54.8,29.98,East,100,0.0,1.0,89,0.00,,---,0.01,VWS V15.00,2017-07-24 14:39:00,
2017-07-24 10:44:00,58.0,55.1,29.98,East,87,0.0,1.0,90,0.00,,---,0.01,VWS V15.00,2017-07-24 14:44:00,
2017-07-24 10:49:00,58.0,55.1,29.98,East,90,0.0,1.0,90,0.00,,---,0.01,VWS V15.00,2017-07-24 14:49:00,
2017-07-24 10:54:00,58.0,55.1,29.98,East,92,0.0,1.0,90,0.00,,---,0.01,VWS V15.00,2017-07-24 14:54:00,
2017-07-24 10:59:00,58.1,55.5,29.98,East,92,0.0,1.0,91,0.00,,---,0.01,VWS V15.00,2017-07-24 14:59:00,
2017-07-24 11:04:00,58.0,55.4,29.99,East,94,0.0,0.0,91,0.00,,---,0.01,VWS V15.00,2017-07-24 15:04:00,
2017-07-24 11:09:00,58.0,55.4,29.99,East,94,0.0,0.0,91,0.00,,---,0.01,VWS V15.00,2017-07-24 15:09:00,
2017-07-24 11:14:00,58.1,55.5,29.99,East,94,0.0,1.0,91,0.00,,---,0.01,VWS V15.00,2017-07-24 15:14:00,
2017-07-24 11:19:00,58.3,55.7,29.98,East,94,0.0,0.0,91,0.00,,---,0.01,VWS V15.00,2017-07-24 15:19:00,
2017-07-24 11:20:00,58.3,55.7,29.98,East,94,0.0,0.0,91,0.00,,---,0.01,VWS V15.00,2017-07-24 15:20:00,
2017-07-24 11:25:00,58.3,55.7,29.98,East,94,0.0,0.0,91,0.00,,---,0.01,VWS V15.00,2017-07-24 15:25:00,
2017-07-24 11:30:00,58.3,56.0,29.98,East,94,1.0,2.0,92,0.00,,---,0.01,VWS V15.00,2017-07-24 15:30:00,
2017-07-24 11:35:00,58.3,56.0,29.97,East,94,0.0,0.0,92,0.00,,---,0.01,VWS V15.00,2017-07-24 15:35:00,
2017-07-24 11:40:00,58.3,56.0,29.97,NNE,17,0.0,3.0,92,0.00,,---,0.01,VWS V15.00,2017-07-24 15:40:00,
2017-07-24 11:45:00,58.1,55.8,29.97,ENE,68,0.0,3.0,92,0.00,,---,0.01,VWS V15.00,2017-07-24 15:45:00,
2017-07-24 11:50:00,58.1,55.8,29.96,ENE,68,0.0,0.0,92,0.00,,---,0.01,VWS V15.00,2017-07-24 15:50:00,
2017-07-24 11:55:00,58.0,55.7,29.96,ENE,68,0.0,1.0,92,0.00,,---,0.01,VWS V15.00,2017-07-24 15:55:00,
2017-07-24 12:00:00,57.6,55.3,29.96,ENE,78,0.0,3.0,92,0.00,,---,0.01,VWS V15.00,2017-07-24 16:00:00,
2017-07-24 12:05:00,57.5,55.2,29.96,East,79,0.0,0.0,92,0.00,,---,0.01,VWS V15.00,2017-07-24 16:05:00,
2017-07-24 12:09:00,57.3,55.0,29.96,NE,56,0.0,2.0,92,0.00,,---,0.01,VWS V15.00,2017-07-24 16:09:00,
2017-07-24 12:14:00,57.2,54.9,29.96,ENE,71,0.0,2.0,92,0.00,,---,0.01,VWS V15.00,2017-07-24 16:14:00,
2017-07-24 12:19:00,57.0,54.7,29.96,East,89,3.0,5.0,92,0.00,,---,0.01,VWS V15.00,2017-07-24 16:19:00,
2017-07-24 12:24:00,56.7,54.4,29.96,ESE,109,2.0,5.0,92,0.00,,---,0.01,VWS V15.00,2017-07-24 16:24:00,
2017-07-24 12:30:00,56.5,54.2,29.96,East,101,0.0,5.0,92,0.00,,---,0.01,VWS V15.00,2017-07-24 16:30:00,
2017-07-24 12:35:00,56.6,54.3,29.95,East,100,0.0,0.0,92,0.00,,---,0.01,VWS V15.00,2017-07-24 16:35:00,
2017-07-24 12:40:00,56.2,53.9,29.95,ESE,102,0.0,3.0,92,0.00,,---,0.01,VWS V15.00,2017-07-24 16:40:00,
2017-07-24 12:45:00,56.2,53.9,29.95,East,93,0.0,3.0,92,0.00,,---,0.01,VWS V15.00,2017-07-24 16:45:00,
2017-07-24 12:50:00,56.0,53.7,29.95,East,83,0.0,0.0,92,0.00,,---,0.01,VWS V15.00,2017-07-24 16:50:00,
2017-07-24 12:55:00,56.0,53.7,29.95,NE,45,2.0,4.0,92,0.00,,---,0.01,VWS V15.00,2017-07-24 16:55:00,
2017-07-24 13:00:00,55.9,53.6,29.95,ENE,63,1.0,5.0,92,0.00,,---,0.01,VWS V15.00,2017-07-24 17:00:00,
2017-07-24 13:05:00,55.7,53.4,29.94,East,86,0.0,4.0,92,0.00,,---,0.01,VWS V15.00,2017-07-24 17:05:00,
2017-07-24 13:10:00,55.4,53.1,29.94,ESE,103,0.0,6.0,92,0.00,,---,0.01,VWS V15.00,2017-07-24 17:10:00,
2017-07-24 13:15:00,55.3,53.0,29.94,East,99,0.0,6.0,92,0.00,,---,0.01,VWS V15.00,2017-07-24 17:15:00,
2017-07-24 13:20:00,55.1,52.8,29.93,East,83,0.0,3.0,92,0.00,,---,0.01,VWS V15.00,2017-07-24 17:20:00,
2017-07-24 13:25:00,55.3,53.0,29.93,East,95,2.0,5.0,92,0.00,,---,0.01,VWS V15.00,2017-07-24 17:25:00,
2017-07-24 13:30:00,55.1,52.8,29.93,North,8,3.0,5.0,92,0.00,,---,0.01,VWS V15.00,2017-07-24 17:30:00,
2017-07-24 13:35:00,55.1,53.1,29.93,ENE,58,0.0,0.0,93,0.00,,---,0.01,VWS V15.00,2017-07-24 17:35:00,
2017-07-24 13:40:00,55.1,53.1,29.93,ESE,104,1.0,3.0,93,0.00,,---,0.01,VWS V15.00,2017-07-24 17:40:00,
2017-07-24 13:45:00,55.3,53.3,29.93,East,98,0.0,4.0,93,0.00,,---,0.01,VWS V15.00,2017-07-24 17:45:00,
2017-07-24 13:50:00,55.3,53.3,29.93,East,98,0.0,0.0,93,0.00,,---,0.01,VWS V15.00,2017-07-24 17:50:00,
2017-07-24 13:55:00,55.4,53.4,29.93,East,98,0.0,0.0,93,0.00,,---,0.01,VWS V15.00,2017-07-24 17:55:00,
2017-07-24 14:00:00,55.6,53.6,29.93,East,98,0.0,1.0,93,0.00,,---,0.01,VWS V15.00,2017-07-24 18:00:00,
2017-07-24 14:05:00,55.7,54.0,29.94,East,98,0.0,0.0,94,0.00,,---,0.01,VWS V15.00,2017-07-24 18:05:00,
2017-07-24 14:10:00,55.7,54.0,29.94,East,98,0.0,1.0,94,0.00,,---,0.01,VWS V15.00,2017-07-24 18:10:00,
2017-07-24 14:15:00,55.9,54.2,29.94,East,98,0.0,1.0,94,0.00,,---,0.01,VWS V15.00,2017-07-24 18:15:00,
2017-07-24 14:20:00,56.0,54.3,29.96,NNE,22,0.0,0.0,94,0.00,,---,0.01,VWS V15.00,2017-07-24 18:20:00,
2017-07-24 14:25:00,56.2,54.5,29.96,NNE,22,0.0,1.0,94,0.00,,---,0.01,VWS V15.00,2017-07-24 18:25:00,
2017-07-24 14:30:00,56.3,54.6,29.96,NNE,22,0.0,1.0,94,0.00,,---,0.01,VWS V15.00,2017-07-24 18:30:00,
2017-07-24 14:35:00,56.3,54.6,29.94,NNE,25,0.0,0.0,94,0.00,,---,0.01,VWS V15.00,2017-07-24 18:35:00,
2017-07-24 14:40:00,56.2,54.5,29.94,ESE,104,0.0,6.0,94,0.00,,---,0.01,VWS V15.00,2017-07-24 18:40:00,
2017-07-24 14:45:00,56.3,54.6,29.94,ESE,104,1.0,6.0,94,0.00,,---,0.01,VWS V15.00,2017-07-24 18:45:00,
2017-07-24 14:50:00,56.3,54.6,29.94,East,92,1.0,1.0,94,0.00,,---,0.01,VWS V15.00,2017-07-24 18:50:00,
2017-07-24 14:55:00,56.3,54.6,29.94,ESE,107,0.0,2.0,94,0.00,,---,0.01,VWS V15.00,2017-07-24 18:55:00,
2017-07-24 15:00:00,56.2,54.5,29.94,East,94,0.0,4.0,94,0.00,,---,0.01,VWS V15.00,2017-07-24 19:00:00,
2017-07-24 15:05:00,56.2,54.5,29.93,East,86,0.0,6.0,94,0.00,,---,0.01,VWS V15.00,2017-07-24 19:05:00,
2017-07-24 15:10:00,56.2,54.5,29.93,ESE,106,0.0,6.0,94,0.00,,---,0.01,VWS V15.00,2017-07-24 19:10:00,
2017-07-24 15:15:00,56.3,54.9,29.93,NE,54,0.0,6.0,95,0.00,,---,0.01,VWS V15.00,2017-07-24 19:15:00,
2017-07-24 15:20:00,56.5,55.1,29.93,ESE,120,2.0,3.0,95,0.00,,---,0.01,VWS V15.00,2017-07-24 19:20:00,
2017-07-24 15:25:00,56.3,54.6,29.93,ESE,120,2.0,7.0,94,0.00,,---,0.01,VWS V15.00,2017-07-24 19:25:00,
2017-07-24 15:30:00,56.5,55.1,29.93,East,91,2.0,7.0,95,0.00,,---,0.01,VWS V15.00,2017-07-24 19:30:00,
2017-07-24 15:35:00,56.5,55.1,29.93,ENE,60,2.0,2.0,95,0.00,,---,0.01,VWS V15.00,2017-07-24 19:35:00,
2017-07-24 15:40:00,56.5,55.1,29.93,East,87,0.0,4.0,95,0.00,,---,0.01,VWS V15.00,2017-07-24 19:40:00,
2017-07-24 15:45:00,56.5,54.8,29.93,SE,141,0.0,4.0,94,0.00,,---,0.01,VWS V15.00,2017-07-24 19:45:00,
2017-07-24 15:50:00,56.3,54.6,29.93,ENE,67,0.0,4.0,94,0.00,,---,0.01,VWS V15.00,2017-07-24 19:50:00,
2017-07-24 15:55:00,56.2,54.5,29.93,North,352,3.0,6.0,94,0.00,,---,0.01,VWS V15.00,2017-07-24 19:55:00,
2017-07-24 16:00:00,56.3,54.9,29.93,ESE,112,2.0,6.0,95,0.00,,---,0.01,VWS V15.00,2017-07-24 20:00:00,
2017-07-24 16:05:00,56.2,54.5,29.93,ESE,119,3.0,5.0,94,0.00,,---,0.01,VWS V15.00,2017-07-24 20:05:00,
2017-07-24 16:10:00,56.2,54.5,29.93,ESE,104,2.0,5.0,94,0.00,,---,0.01,VWS V15.00,2017-07-24 20:10:00,
2017-07-24 16:15:00,56.0,54.3,29.93,ESE,106,0.0,5.0,94,0.00,,---,0.01,VWS V15.00,2017-07-24 20:15:00,
2017-07-24 16:20:00,56.0,54.3,29.93,ENE,65,2.0,4.0,94,0.00,,---,0.01,VWS V15.00,2017-07-24 20:20:00,
2017-07-24 16:25:00,55.9,54.2,29.93,ENE,73,2.0,4.0,94,0.00,,---,0.01,VWS V15.00,2017-07-24 20:25:00,
2017-07-24 16:30:00,56.0,54.3,29.93,ESE,110,0.0,4.0,94,0.00,,---,0.01,VWS V15.00,2017-07-24 20:30:00,
2017-07-24 16:35:00,56.0,54.3,29.93,East,101,0.0,3.0,94,0.00,,---,0.01,VWS V15.00,2017-07-24 20:35:00,
2017-07-24 16:40:00,55.9,54.2,29.93,ENE,60,1.0,7.0,94,0.00,,---,0.01,VWS V15.00,2017-07-24 20:40:00,
2017-07-24 16:45:00,56.0,54.3,29.93,East,80,0.0,7.0,94,0.00,,---,0.01,VWS V15.00,2017-07-24 20:45:00,
2017-07-24 16:50:00,56.0,54.3,29.93,East,87,0.0,0.0,94,0.00,,---,0.01,VWS V15.00,2017-07-24 20:50:00,
2017-07-24 16:55:00,56.0,54.3,29.93,ESE,102,0.0,4.0,94,0.00,,---,0.01,VWS V15.00,2017-07-24 20:55:00,
2017-07-24 17:05:00,56.2,54.8,29.92,NE,34,2.0,3.0,95,0.00,,---,0.01,VWS V15.00,2017-07-24 21:05:00,
2017-07-24 17:10:00,56.2,54.8,29.92,NNE,30,2.0,7.0,95,0.00,,---,0.01,VWS V15.00,2017-07-24 21:10:00,
2017-07-24 17:15:00,56.3,54.9,29.92,NE,44,0.0,7.0,95,0.00,,---,0.01,VWS V15.00,2017-07-24 21:15:00,
2017-07-24 17:20:00,56.3,54.9,29.93,NE,47,0.0,0.0,95,0.00,,---,0.01,VWS V15.00,2017-07-24 21:20:00,
2017-07-24 17:25:00,56.3,54.9,29.93,NE,47,0.0,2.0,95,0.00,,---,0.01,VWS V15.00,2017-07-24 21:25:00,
2017-07-24 17:30:00,56.5,55.1,29.93,North,359,0.0,2.0,95,0.00,,---,0.01,VWS V15.00,2017-07-24 21:30:00,
2017-07-24 17:35:00,56.5,55.1,29.93,NE,42,0.0,4.0,95,0.00,,---,0.01,VWS V15.00,2017-07-24 21:35:00,
2017-07-24 17:40:00,56.5,55.1,29.93,ENE,63,0.0,4.0,95,0.00,,---,0.01,VWS V15.00,2017-07-24 21:40:00,
2017-07-24 17:45:00,56.5,55.1,29.93,NE,35,0.0,4.0,95,0.00,,---,0.01,VWS V15.00,2017-07-24 21:45:00,
2017-07-24 17:50:00,56.5,55.1,29.93,East,83,0.0,3.0,95,0.00,,---,0.01,VWS V15.00,2017-07-24 21:50:00,
2017-07-24 17:55:00,56.6,55.2,29.93,ENE,67,0.0,3.0,95,0.00,,---,0.01,VWS V15.00,2017-07-24 21:55:00,
2017-07-24 18:00:00,56.6,55.2,29.93,North,11,0.0,3.0,95,0.00,,---,0.01,VWS V15.00,2017-07-24 22:00:00,
2017-07-24 18:05:00,56.6,55.2,29.94,ESE,114,3.0,3.0,95,0.00,,---,0.01,VWS V15.00,2017-07-24 22:05:00,
2017-07-24 18:10:00,56.6,55.2,29.94,ESE,106,0.0,4.0,95,0.00,,---,0.01,VWS V15.00,2017-07-24 22:10:00,
2017-07-24 18:15:00,56.6,55.2,29.94,East,91,1.0,4.0,95,0.00,,---,0.01,VWS V15.00,2017-07-24 22:15:00,
2017-07-24 18:20:00,56.7,55.3,29.93,North,5,0.0,5.0,95,0.00,,---,0.01,VWS V15.00,2017-07-24 22:20:00,